Notices

What's New in latest Release from April 7th, 2021:

- Updated Glossary, including Speed of Maximum Gust, and Total Hourly Precipitation

- Updated national and regional climate services offices contacts and prices information

- Addition of station inventory lists for 1981-2010, 1971-2000, and 1961-1990 Normals.

If you haven't already, please take our survey and provide feedback about our website: https://eccc.sondage-survey.ca/f/LanguageSelection.aspx?s=442ca660-fcf1-47c0-95a9-59707d6fd709

Hourly Data Report for October 25, 2006

TORONTO CITY
ONTARIO

43°40'00.000" N
79°24'00.000" W
112.50 m
6158355
71508
XTO

Download Data

Hourly Data (October 2006)
Hourly Data Report for October 25, 2006
TIME
LST
Temp Definition
°C
Dew Point Definition
°C
Rel Hum Definition
%
Precip. Amount Definition
mm

Wind Dir Definition
10's deg

Wind Spd Definition
km/h
Visibility Definition
km
Stn Press Definition
kPa
Hmdx Definition


Wind Chill Definition


Weather Definition


00:00 4.1 1.2 81   LegendMM LegendMM   100.13     LegendNANA
01:00 4.3 1.9 84   LegendMM LegendMM   100.18     LegendNANA
02:00 4.5 2.2 85   LegendMM LegendMM   100.24     LegendNANA
03:00 4.6 2.4 86   LegendMM LegendMM   100.23     LegendNANA
04:00 4.7 2.8 87   LegendMM LegendMM   100.28     LegendNANA
05:00 4.8 2.7 86   LegendMM LegendMM   100.32     LegendNANA
06:00 4.8 2.9 87   LegendMM LegendMM   100.39     LegendNANA
07:00 5.2 3.1 86   LegendMM LegendMM   100.45     LegendNANA
08:00 5.5 3.3 86   LegendMM LegendMM   100.52     LegendNANA
09:00 5.9 2.6 79   LegendMM LegendMM   100.56     LegendNANA
10:00 6.7 2.8 76   LegendMM LegendMM   100.57     LegendNANA
11:00 7.6 2.2 69   LegendMM LegendMM   100.57     LegendNANA
12:00 8.4 3.7 72   LegendMM LegendMM   100.57     LegendNANA
13:00 8.9 3.3 68   LegendMM LegendMM   100.53     LegendNANA
14:00 8.3 2.4 66   LegendMM LegendMM   100.52     LegendNANA
15:00 7.9 2.3 68   LegendMM LegendMM   100.55     LegendNANA
16:00 7.0 1.9 70   LegendMM LegendMM   100.60     LegendNANA
17:00 6.0 2.4 78   LegendMM LegendMM   100.66     LegendNANA
18:00 5.4 1.7 77   LegendMM LegendMM   100.70     LegendNANA
19:00 5.1 0.9 74   LegendMM LegendMM   100.74     LegendNANA
20:00 5.0 0.8 74   LegendMM LegendMM   100.78     LegendNANA
21:00 4.9 -0.1 70   LegendMM LegendMM   100.81     LegendNANA
22:00 4.7 -1.1 66   LegendMM LegendMM   100.82     LegendNANA
23:00 4.6 -0.9 67   LegendMM LegendMM   100.83     LegendNANA

Notes on Data Quality.

Legend

  • E = Estimated
  • M = Missing
  • NA = Not Available*
  • [empty] = Indicates an unobserved value
Date modified: